Regional Weather Roundup
Issued by NWS

Home | Current Version | Previous Version | Text Only | Print | Product List | Glossary On
Versions: 1 2 3 4 5 6 7 8 9 10 11 12 13 14 15 16 17 18 19 20 21 22 23 24 25 26 27 28 29 30 31 32 33 34 35 36 37 38 39 40 41 42 43 44 45 46 47 48 49 50
000
ASUS45 KBOU 010707
RWRCO

WEATHER ROUNDUP FOR COLORADO
NATIONAL WEATHER SERVICE DENVER/BOULDER CO
1200 AM MST SUN FEB 01 2015

NOTE: "FAIR" INDICATES FEW OR NO CLOUDS BELOW 12000 FEET WITH NO
SIGNIFICANT WEATHER AND/OR OBSTRUCTIONS TO VISIBILITY.

COZ001>005-013-030-031-010800-
...NORTHWEST COLORADO...

CITY           SKY/WX    TMP DP  RH WIND       PRES   REMARKS
CRAIG          CLEAR     25  17  72 SW9       30.05R WCI  15
HAYDEN         CLEAR     25  16  68 W15       30.01R WCI  12
MEEKER         PTCLDY    23  21  92 CALM      30.05R
MOUNT WERNER   NOT AVBL
STEAMBOAT SPGS CLEAR     23  13  65 E3        30.00R
WALDEN         MOCLDY    18  14  86 NW10      29.95R WCI   6
$$

COZ006>008-011-010800-
...WEST CENTRAL VALLEYS...

CITY           SKY/WX    TMP DP  RH WIND       PRES   REMARKS
GRAND JUNCTION CLEAR     32  31  96 CALM      30.05R
MONTROSE       CLOUDY    33  32  96 SE3       30.07R FOG
EAGLE          PTCLDY    28  25  86 SE7       30.03S WCI  21
RIFLE          CLEAR     29  26  89 SE7       30.04R WCI  22
DELTA          CLOUDY    35  34  94 N3        30.07R
NUCLA          CLEAR     32  32 100 E6        30.09S WCI  26
$$

COZ017>023-064>068-010800-
...SOUTHWEST COLORADO...

CITY           SKY/WX    TMP DP  RH WIND       PRES   REMARKS
DURANGO        FOG       32  32 100 CALM      29.97R VSB 1/2
CORTEZ         CLEAR     34  29  82 N5        30.01R WCI  30
PAGOSA SPRINGS CLOUDY    32  32 100 CALM      29.98R
TELLURIDE      PTCLDY    24  23  99 SE7       30.06R WCI  16
WOLF CREEK PAS PTCLDY    16   1  53 NE16      30.01R WCI   0
$$

COZ009-010-012-014-032>034-037-058>063-010800-
...CENTRAL COLORADO...

CITY           SKY/WX    TMP DP  RH WIND       PRES   REMARKS
ASPEN          CLOUDY    25  23  92 CALM      30.01R
BUENA VISTA    PTCLDY    27  11  49 CALM      29.92R
COPPER MTN     CLOUDY    14   9  79 W25G40    29.90R HAZE    WCI  -5
BERTHOUD PASS  CLOUDY     5   0  78 NW46      29.80F HAZE    WCI -23
COTTONWOOD PAS PTCLDY    27   5  39 W14G31    29.91R WCI  15
GUNNISON       PTCLDY    25  14  63 W6        30.01R WCI  18
KREMMLING      CLEAR     28   9  43 W18G24    29.98S WCI  16
LEADVILLE      CLOUDY    19   6  57 NW8G24    29.93R WCI   9
MONARCH PASS   CLOUDY    14  12  92 MISG      30.01S
SALIDA         PTCLDY    32  16  51 NW9       29.98R WCI  24
SUNLIGHT       SNOW     N/A N/A N/A W7          N/A  VSB 1/4
WILKERSON PASS MOCLDY    14   7  73 NW17G30   29.91R WCI  -3
$$

COZ069>075-010800-
...SAN LUIS VALLEY/SANGRE DE CRISTO MOUNTAINS...

CITY           SKY/WX    TMP DP  RH WIND       PRES   REMARKS
ALAMOSA        CLOUDY    29  27  92 CALM      29.94R FOG
LA VETA PASS   CLOUDY    23  21  93 MISG      29.89S FOG
SAGUACHE       PTCLDY    28  19  69 CALM      29.95R
$$

COZ035-036-038>040-010800-
...NORTHERN COLORADO FRONT RANGE...

CITY           SKY/WX    TMP DP  RH WIND       PRES   REMARKS
DENVER INTL AP LGT SNOW  29  27  92 N21G29    29.97R VSB 1   WCI  16
DMNS CITY PARK   N/A     28  28  99 N3G15     29.99R
AURORA         LGT SNOW  28  28 100 N12       29.98R VSB 1   WCI  18
FRONT RANGE AP NOT AVBL
ERIE MUNI ARPT LGT SNOW  30  29  96 N6        29.99R VSB 3/4 WCI  24
BOULDER MUN AP LGT SNOW  30  30 100 NE3       29.99R VSB 3/4
CENTENNIAL     HVY SNOW  27  27 100 N17       29.96R VSB 1/4 WCI  14
BROOMFIELD     LGT SNOW  30  28  93 N10       29.98R VSB 1   WCI  21
FORT COLLINS   CLOUDY    30  21  69 N16G22    29.99R WCI  19
LONGMONT       FLURRIES  33  27  79 N6        30.00R WCI  27
$$

COZ041-046-047-076>085-087-088-010800-
...PIKES PEAK/PALMER DIVIDE AND SOUTHERN FOOTHILLS...

CITY           SKY/WX    TMP DP  RH WIND       PRES   REMARKS
COLO. SPRINGS  MOCLDY    31  26  82 N14       29.90R WCI  21
A. F. ACADEMY  MIX PCPN  31  26  83 N16G31    29.90R WCI  19
ELLICOTT       CLEAR    N/A N/A N/A N23G29    29.87R
FALCON         CLOUDY    29  27  91 N16       29.90R WCI  18
FORT CARSON    MOCLDY    31  29  94 N7        29.89R WCI  24
LIMON          CLOUDY    28  26  92 N20       29.91R WCI  15
MONUMENT HILL  SNOW      27  27 100 N13G18    29.91R VSB 1/2 WCI  16
TRINIDAD       CLOUDY    35  32  88 W10       29.87S WCI  27
$$

COZ042>045-048>051-090-091-010800-
...NORTHEAST COLORADO...

CITY           SKY/WX    TMP DP  RH WIND       PRES   REMARKS
GREELEY ARPT   CLOUDY    32  21  64 N23G31    29.97R WCI  19
AKRON          CLOUDY    23  23 100 N18       29.95R FOG     WCI   9
BURLINGTON     CLOUDY    26  23  88 N21G26    29.90R WCI  12
WRAY           CLOUDY    24  21  91 N18G28    29.96S WCI  10
STERLING       CLOUDY    27  23  86 NE12      29.98R WCI  16
HOLYOKE        NOT AVBL
FORT MORGAN    CLOUDY    28  26  94 N9        29.98R WCI  19
$$

COZ086-089-092>099-010800-
...SOUTHEAST COLORADO...

CITY           SKY/WX    TMP DP  RH WIND       PRES   REMARKS
PUEBLO         CLOUDY    34  33  96 CALM      29.90R FOG
LA JUNTA       MOCLDY    37  32  82 N9        29.90R
LAMAR          CLOUDY    38  35  89 N12       29.87R
SPRINGFIELD      N/A     32  31  96 NW9       29.85R WCI  24
$$



USA.gov is the U.S. government's official web portal to all federal, state and local government web resources and services.